Погода в Сапожке

Россия / Саратовская область     52°19′48″N   43°59′04″E
темп.,
°C
ветер,
м/с
пор.,
м/с
влажн.,
%
обл.,
%
осадки,
мм/ч
давл.,
гПа
погр.,
м
18 мая, ср
ср1801:00+6з61096100 0.8 1004689
04:00+6з6996100 1.2 1004681
07:00+6з5997100 0.2 1005534
10:00+7зсз469397 0.4 1007495
13:00+12сз5562100 0.3 10081493
16:00+12сз356288 0.4 10091108
19:00+12ссз236536 0.0 1010550
22:00+10зюз116796 0.0 101210
19 мая, чт
чт1901:00+9сз1283100 0.0 101219
04:00+8ссз22926 0.1 101328
07:00+8ссз24855 0.0 1014149
10:00+12сз457020 0.0 1014950
13:00+14сз565310 0.1 10141627
16:00+14сз5754100 0.1 10131655
19:00+13зсз576343 0.1 10121068
22:00+10зсз2482100 0.6 1013109
20 мая, пт
пт2001:00+6ссз369472 0.1 1012128
04:00+4ссз38955 0.1 1013172
07:00+5ссз510872 0.0 1014430
10:00+8ссз811595 0.0 10151429
13:00+10ссз81045100 0.0 10152353
16:00+11ссз7941100 0.0 10152457
19:00+10ссз585310 0.0 10151675
22:00+5ссз34695 0.0 101665
21 мая, сб
сб2101:00+3сз227026 0.0 101512
04:00+3зсз2273100 0.0 101411
07:00+5з1169100 0.0 101388
10:00+10ссз125173 0.0 10111130
13:00+12ссз224199 0.0 10092200
16:00+12с334491 0.0 10082102
19:00+11с34565 0.0 10081176
22:00+6ссв33725 0.1 100930
22 мая, вс
вс2201:00+4св338499 0.0 100949
04:00+3св11877 0.0 100910
07:00+5с237595 0.0 1009148
10:00+9с345641 0.0 10081453
13:00+11с334689 0.1 10071902
16:00+12с3343100 0.1 10071913
19:00+10св5560100 0.0 1007688
22:00+6всв487294 0.0 1008144